This is the latest recevied weather packets stored in our database for station/object K6POO-1. If no packets are shown the sender has not sent any weather packets the latest 10 day(s).
| Time | Temp. | Humidity | Pressure | Rain* | Wind** | Luminosity | Snow |
|---|---|---|---|---|---|---|---|
| 1788561963 | 20° C | 65% | 1014.7 hPa | 0 mm | - | 541 W/m² | - |
| 1788561659 | 20° C | 64% | 1014.7 hPa | 0 mm | - | 564 W/m² | - |
| 1788561357 | 20° C | 65% | 1014.5 hPa | 0 mm | - | 582 W/m² | - |
| 1788561053 | 20° C | 64% | 1014.8 hPa | 0 mm | - | 603 W/m² | - |
| 1788560748 | 20° C | 63% | 1014.8 hPa | 0 mm | - | 620 W/m² | - |
| 1788560444 | 20.56° C | 60% | 1015 hPa | 0 mm | - | 634 W/m² | - |
| 1788560138 | 20.56° C | 59% | 1014.8 hPa | 0 mm | - | 650 W/m² | - |
| 1788559834 | 20° C | 58% | 1015 hPa | 0 mm | - | 666 W/m² | - |
| 1788559533 | 20.56° C | 56% | 1014.8 hPa | 0 mm | - | 680 W/m² | - |
| 1788559228 | 20.56° C | 57% | 1014.7 hPa | 0 mm | - | 704 W/m² | - |
| 1788558928 | 20.56° C | 56% | 1014.9 hPa | 0 mm | - | 723 W/m² | - |
| 1788558624 | 20.56° C | 57% | 1014.7 hPa | 0 mm | - | 736 W/m² | - |
| 1788558319 | 20° C | 57% | 1014.8 hPa | 0 mm | - | 752 W/m² | - |
| 1788558014 | 20° C | 61% | 1014.9 hPa | 0 mm | - | 762 W/m² | - |
| 1788557712 | 20° C | 62% | 1015 hPa | 0 mm | - | 775 W/m² | - |
| 1788557409 | 20° C | 60% | 1015.1 hPa | 0 mm | - | 784 W/m² | - |
| 1788557108 | 20.56° C | 60% | 1015 hPa | 0 mm | - | 793 W/m² | - |
| 1788556804 | 20° C | 64% | 1015.1 hPa | 0 mm | - | 805 W/m² | - |
| 1788556498 | 20° C | 66% | 1014.9 hPa | 0 mm | - | 816 W/m² | - |
| 1788556194 | 20° C | 63% | 1014.9 hPa | 0 mm | - | 824 W/m² | - |
| 1788555893 | 20° C | 62% | 1015.2 hPa | 0 mm | - | 832 W/m² | - |
| 1788555589 | 20° C | 62% | 1015.1 hPa | 0 mm | - | 843 W/m² | - |
| 1788555284 | 20° C | 62% | 1015.1 hPa | 0 mm | - | 852 W/m² | - |
| 1788554982 | 20.56° C | 61% | 1015 hPa | 0 mm | - | 859 W/m² | - |
| 1788554682 | 20° C | 62% | 1014.9 hPa | 0 mm | - | 867 W/m² | - |
* Rain latest hour (hover to see other rain measurements)
** Current wind speed in m/s (hover to see current wind gust speed)